GW6354 Weather Reports


Display with metric or nautical units.
time (UTC)temp
F
wind
direction
speed
MPH
gust
MPH
rain 1hr
in
rain 24hr
in
rain mn
in
humidity
%
barometer
mb
20260506162518 65 193 6.0 13.0 0.01 0.27 0.27 75 1009.5
20260506161521 65 156 9.0 11.0 0.00 0.27 0.27 74 1009.7
20260506160524 66 190 4.0 6.0 0.00 0.27 0.27 75 1009.7
20260506155515 66 161 7.0 11.0 0.00 0.27 0.27 74 1009.7
20260506154517 65 150 3.0 4.0 0.00 0.27 0.27 74 1009.9
20260506153520 66 172 5.0 9.0 0.00 0.27 0.27 76 1009.8
20260506152522 66 166 5.0 8.0 0.00 0.27 0.27 75 1010.1
20260506151545 65 162 6.0 7.0 0.00 0.27 0.27 80 1010.2
20260506150517 65 149 5.0 6.0 0.00 0.27 0.27 81 1010.4
20260506145519 64 82 3.0 4.0 0.00 0.27 0.27 79 1010.5
20260506144522 64 73 3.0 6.0 0.00 0.27 0.27 82 1010.5
20260506143544 63 35 4.0 9.0 0.00 0.27 0.27 82 1010.6
20260506142516 63 40 3.0 4.0 0.00 0.27 0.27 83 1010.7
20260506141518 62 31 4.0 6.0 0.00 0.27 0.27 87 1010.7
20260506140521 62 137 3.0 4.0 0.00 0.27 0.27 86 1010.7
20260506135523 62 154 1.0 2.0 0.00 0.27 0.27 87 1010.9
20260506134516 62 142 1.0 2.0 0.00 0.27 0.27 88 1010.9
20260506133541 62 229 3.0 4.0 0.00 0.27 0.27 86 1011.0
20260506132521 62 213 5.0 6.0 0.00 0.27 0.27 85 1011.1
20260506131523 62 201 4.0 5.0 0.00 0.27 0.27 85 1011.2
20260506130515 62 198 7.0 9.0 0.00 0.27 0.27 83 1011.4
20260506125517 63 191 7.0 9.0 0.00 0.27 0.27 82 1011.4
20260506124520 63 184 10.0 14.0 0.00 0.27 0.27 81 1011.4
20260506123522 61 192 12.0 13.0 0.00 0.28 0.27 81 1011.4
20260506122515 61 184 13.0 17.0 0.00 0.28 0.27 89 1011.4
20260506121517 61 197 13.0 17.0 0.00 0.28 0.27 88 1011.4
20260506120519 61 185 5.0 8.0 0.00 0.28 0.27 89 1011.4
20260506115522 60 172 5.0 6.0 0.00 0.28 0.27 90 1011.5
20260506114524 61 176 6.0 9.0 0.00 0.28 0.27 87 1011.4
20260506113517 61 179 7.0 9.0 0.00 0.28 0.26 84 1011.5
20260506112519 61 165 11.0 17.0 0.00 0.28 0.26 84 1011.6
20260506111521 61 162 7.0 9.0 0.00 0.29 0.26 85 1011.4
20260506110544 61 177 11.0 13.0 0.00 0.29 0.26 84 1011.6
20260506105516 61 171 5.0 7.0 0.00 0.29 0.26 86 1011.6
20260506104559 61 162 7.0 9.0 0.00 0.29 0.26 85 1011.6
20260506103521 61 171 8.0 10.0 0.01 0.29 0.26 86 1011.7
20260506102523 60 158 9.0 11.0 0.01 0.29 0.26 87 1011.9
20260506101516 60 140 8.0 11.0 0.01 0.29 0.26 89 1011.9
20260506100518 60 159 9.0 13.0 0.01 0.29 0.26 87 1012.0
20260506095520 60 161 11.0 13.0 0.01 0.29 0.26 86 1012.0
20260506094523 59 164 8.0 11.0 0.01 0.29 0.26 90 1012.2
20260506093515 59 176 7.0 11.0 0.01 0.29 0.26 93 1012.3
20260506092517 59 130 3.0 4.0 0.01 0.29 0.25 93 1012.1
20260506091521 60 128 4.0 5.0 0.01 0.29 0.25 92 1012.1
20260506090523 60 180 3.0 4.0 0.03 0.29 0.25 93 1012.1
20260506085515 60 81 6.0 8.0 0.05 0.29 0.25 94 1011.9
20260506084517 60 91 7.0 9.0 0.05 0.28 0.25 94 1011.9
20260506083520 60 92 6.0 8.0 0.06 0.28 0.25 93 1011.9
20260506082522 60 137 6.0 8.0 0.06 0.28 0.24 91 1012.0
20260506081514 60 137 7.0 10.0 0.08 0.27 0.24 94 1012.0
20260506080517 59 119 6.0 8.0 0.08 0.26 0.23 95 1011.9
20260506073524 59 124 3.0 4.0 0.07 0.23 0.19 98 1011.9
20260506072537 58 106 3.0 3.0 0.07 0.21 0.18 98 1011.9
20260506071519 58 356 1.0 1.0 0.06 0.19 0.16 99 1011.9
20260506070522 58 0 3.0 3.0 0.05 0.18 0.15 99 1011.9
20260506061544 58 200 0.0 0.0 0.10 0.13 0.10 98 1011.7
20260506060516 58 51 2.0 2.0 0.10 0.13 0.10 98 1011.7
20260506050521 57 76 4.0 5.0 0.00 0.04 0.00 97 1011.3
20260506044517 56 149 1.0 2.0 0.00 0.04 0.00 98 1011.4
20260506043519 56 62 2.0 2.0 0.00 0.04 0.00 98 1011.5
20260506042521 56 163 3.0 3.0 0.00 0.04 0.00 98 1011.6
20260506041524 56 183 5.0 6.0 0.00 0.04 0.00 96 1011.6
20260506040517 56 335 1.0 1.0 0.00 0.04 0.00 96 1011.4
20260506035519 57 144 2.0 2.0 0.00 0.04 0.00 95 1011.6
20260506034521 57 163 2.0 3.0 0.00 0.04 0.00 95 1011.7
20260506033524 57 178 2.0 2.0 0.00 0.04 0.00 92 1011.8
20260506032516 57 49 1.0 1.0 0.00 0.04 0.00 94 1011.9
20260506031539 57 85 3.0 3.0 0.00 0.04 0.00 95 1012.0
20260506030521 57 153 2.0 3.0 0.00 0.04 0.00 93 1012.0
20260506025524 58 191 2.0 3.0 0.00 0.04 0.00 93 1012.1
20260506024517 57 94 1.0 1.0 0.00 0.04 0.00 93 1012.0
20260506023519 57 221 1.0 1.0 0.00 0.04 0.00 94 1012.4
20260506022521 57 119 1.0 1.0 0.00 0.04 0.00 94 1012.4
20260506021524 57 47 1.0 2.0 0.00 0.04 0.00 94 1012.5
20260506020516 58 202 1.0 1.0 0.00 0.04 0.00 92 1012.5
20260506015559 58 175 3.0 4.0 0.00 0.04 0.00 91 1012.6
20260506014521 58 166 3.0 3.0 0.00 0.04 0.00 89 1012.6
20260506013524 59 33 3.0 4.0 0.00 0.04 0.00 85 1012.5
20260506012517 59 32 2.0 2.0 0.00 0.04 0.00 86 1012.6
20260506011519 59 360 4.0 4.0 0.00 0.04 0.00 87 1012.5
20260506010522 58 3 3.0 5.0 0.00 0.04 0.00 89 1012.4
20260506005544 58 4 6.0 9.0 0.00 0.04 0.00 89 1012.3
20260506004517 59 319 5.0 6.0 0.00 0.04 0.00 85 1012.4
20260506003539 59 147 1.0 2.0 0.00 0.04 0.00 86 1012.3
20260506002542 59 86 1.0 2.0 0.00 0.04 0.00 87 1012.3
20260506001544 59 76 2.0 2.0 0.00 0.04 0.00 87 1012.4
20260506000517 59 19 3.0 3.0 0.00 0.04 0.00 87 1012.5
20260505235519 59 12 3.0 4.0 0.00 0.04 0.00 86 1012.5
20260505234522 59 200 1.0 2.0 0.00 0.04 0.00 85 1012.7
20260505233525 59 199 2.0 4.0 0.00 0.04 0.00 85 1012.8
20260505232517 59 124 3.0 4.0 0.00 0.04 0.00 84 1012.9
20260505231519 59 136 6.0 12.0 0.00 0.04 0.00 84 1013.0
20260505230543 59 124 3.0 4.0 0.00 0.04 0.00 84 1013.1
20260505225515 59 96 4.0 4.0 0.00 0.04 0.00 83 1013.1
20260505224517 58 75 3.0 4.0 0.00 0.04 0.00 84 1013.1
20260505223520 59 69 5.0 5.0 0.00 0.04 0.00 83 1013.1
20260505222522 58 111 5.0 6.0 0.00 0.04 0.00 85 1013.2
20260505221515 59 142 6.0 8.0 0.00 0.04 0.00 82 1013.2
20260505220518 59 114 5.0 6.0 0.00 0.04 0.00 82 1013.4
20260505215520 59 116 3.0 4.0 0.00 0.04 0.04 81 1013.5
20260505214522 58 114 4.0 6.0 0.00 0.04 0.04 86 1013.6
20260505213515 58 47 4.0 4.0 0.00 0.04 0.04 85 1013.5
20260505212517 57 100 3.0 3.0 0.00 0.04 0.04 89 1013.5
20260505211519 58 96 5.0 7.0 0.00 0.04 0.04 89 1013.6
20260505210521 58 106 5.0 6.0 0.00 0.04 0.04 87 1013.7
20260505205544 58 129 5.0 5.0 0.00 0.04 0.04 91 1013.7
20260505204518 58 141 5.0 6.0 0.00 0.04 0.04 89 1013.8
20260505203521 58 90 2.0 3.0 0.00 0.04 0.04 88 1013.8
20260505202522 59 117 4.0 5.0 0.00 0.04 0.04 87 1013.7
20260505201543 58 148 3.0 3.0 0.00 0.04 0.04 88 1013.8
20260505200523 58 107 3.0 4.0 0.00 0.04 0.04 90 1013.8
20260505195520 58 114 3.0 3.0 0.00 0.04 0.04 91 1013.8
20260505194520 57 105 3.0 4.0 0.00 0.04 0.04 93 1013.8
20260505193522 57 89 2.0 3.0 0.00 0.04 0.04 96 1013.8
20260505192515 57 21 4.0 4.0 0.00 0.04 0.04 97 1013.7
20260505191519 56 343 1.0 2.0 0.00 0.04 0.04 98 1013.5
20260505190519 56 344 2.0 2.0 0.00 0.04 0.04 98 1013.5
20260505185522 56 269 1.0 2.0 0.00 0.04 0.04 98 1013.6
20260505184531 56 113 1.0 2.0 0.00 0.04 0.04 98 1013.5
20260505183517 56 129 1.0 1.0 0.00 0.04 0.04 98 1013.4
20260505182522 56 126 2.0 2.0 0.00 0.04 0.04 98 1013.3
20260505181523 56 173 2.0 2.0 0.00 0.04 0.04 98 1013.4
20260505180524 56 133 2.0 2.0 0.00 0.04 0.04 98 1013.3
20260505175516 56 151 1.0 2.0 0.00 0.05 0.04 98 1013.4
20260505174520 56 141 3.0 3.0 0.00 0.05 0.04 97 1013.3
20260505173522 57 160 1.0 2.0 0.00 0.05 0.04 97 1013.3
20260505172523 57 178 1.0 2.0 0.00 0.05 0.04 97 1013.4
20260505171516 57 127 1.0 1.0 0.00 0.05 0.04 96 1013.5
20260505170518 57 125 2.0 2.0 0.00 0.05 0.04 96 1013.5
20260505165520 56 119 2.0 2.0 0.00 0.05 0.04 96 1013.5
20260505164523 56 63 2.0 2.0 0.00 0.05 0.04 97 1013.6
20260505163515 56 61 2.0 3.0 0.00 0.05 0.04 97 1013.5